Time,TemperatureF,DewpointF,PressureIn,WindDirection,WindDirectionDegrees,WindSpeedMPH,WindSpeedGustMPH,Humidity,HourlyPrecipIn,Conditions,Clouds,dailyrainin,SoftwareType,DateUTC
2013-04-05 00:00:00,45.0,43.9,30.04,North,0,0.0,0.0,96,0.00,,,0.00,WUHU21623XXSP,2013-04-05 05:00:00,
2013-04-05 00:05:00,44.8,43.7,30.04,North,0,0.0,0.0,96,0.00,,,0.00,WUHU21623XXSP,2013-04-05 05:05:00,
2013-04-05 00:10:00,44.8,43.7,30.04,North,0,0.0,0.0,96,0.00,,,0.00,WUHU21623XXSP,2013-04-05 05:10:00,
2013-04-05 00:15:00,44.8,43.7,30.04,North,0,0.0,0.0,96,0.00,,,0.00,WUHU21623XXSP,2013-04-05 05:15:00,
2013-04-05 00:17:00,44.8,43.7,30.04,North,0,0.0,0.0,96,0.00,,,0.00,WUHU21623XXSP,2013-04-05 05:17:00,
2013-04-05 00:20:00,44.4,43.3,30.04,North,0,0.0,0.0,96,0.00,,,0.00,WUHU21623XXSP,2013-04-05 05:20:00,
2013-04-05 00:25:00,44.4,43.3,30.04,North,0,0.0,0.0,96,0.00,,,0.00,WUHU21623XXSP,2013-04-05 05:25:00,
2013-04-05 00:30:00,44.2,43.2,30.04,North,0,0.0,0.0,96,0.00,,,0.00,WUHU21623XXSP,2013-04-05 05:30:00,
2013-04-05 00:35:00,44.1,43.0,30.04,North,0,0.0,0.0,96,0.00,,,0.00,WUHU21623XXSP,2013-04-05 05:35:00,
2013-04-05 00:40:00,44.1,43.0,30.04,North,0,0.0,0.0,96,0.00,,,0.00,WUHU21623XXSP,2013-04-05 05:40:00,
2013-04-05 00:45:00,43.9,42.8,30.04,North,0,0.0,0.0,96,0.00,,,0.00,WUHU21623XXSP,2013-04-05 05:45:00,
2013-04-05 00:50:00,43.7,42.6,30.04,North,0,0.0,0.0,96,0.00,,,0.00,WUHU21623XXSP,2013-04-05 05:50:00,
2013-04-05 00:55:00,43.5,42.4,30.04,North,0,0.0,0.0,96,0.00,,,0.00,WUHU21623XXSP,2013-04-05 05:55:00,
2013-04-05 01:00:00,43.3,42.3,30.04,North,0,0.0,0.0,96,0.00,,,0.00,WUHU21623XXSP,2013-04-05 06:00:00,
2013-04-05 01:05:00,43.2,42.3,30.04,North,0,0.0,0.0,96,0.00,,,0.00,WUHU21623XXSP,2013-04-05 06:05:00,
2013-04-05 01:10:00,43.2,42.1,30.05,North,0,0.0,0.0,96,0.00,,,0.00,WUHU21623XXSP,2013-04-05 06:10:00,
2013-04-05 01:15:00,43.2,42.1,30.05,North,0,0.0,0.0,96,0.00,,,0.00,WUHU21623XXSP,2013-04-05 06:15:00,
2013-04-05 01:17:00,43.0,41.9,30.04,North,0,0.0,0.0,96,0.00,,,0.00,WUHU21623XXSP,2013-04-05 06:17:00,
2013-04-05 01:20:00,43.0,41.9,30.05,North,0,0.0,0.0,96,0.00,,,0.00,WUHU21623XXSP,2013-04-05 06:20:00,
2013-04-05 01:25:00,43.0,41.9,30.05,North,0,0.0,0.0,96,0.00,,,0.00,WUHU21623XXSP,2013-04-05 06:25:00,
2013-04-05 01:30:00,43.0,41.9,30.05,North,0,0.0,0.0,96,0.00,,,0.00,WUHU21623XXSP,2013-04-05 06:30:00,
2013-04-05 01:35:00,42.4,41.4,30.05,North,0,0.0,0.0,96,0.00,,,0.00,WUHU21623XXSP,2013-04-05 06:35:00,
2013-04-05 01:40:00,42.4,41.4,30.05,North,0,0.0,0.0,96,0.00,,,0.00,WUHU21623XXSP,2013-04-05 06:40:00,
2013-04-05 01:45:00,42.4,41.4,30.05,North,0,0.0,0.0,96,0.00,,,0.00,WUHU21623XXSP,2013-04-05 06:45:00,
2013-04-05 01:50:00,42.1,41.0,30.05,North,0,0.0,0.0,96,0.00,,,0.00,WUHU21623XXSP,2013-04-05 06:50:00,
2013-04-05 01:55:00,42.1,41.0,30.05,North,0,0.0,0.0,96,0.00,,,0.00,WUHU21623XXSP,2013-04-05 06:55:00,
2013-04-05 02:00:00,41.9,40.8,30.06,North,0,0.0,0.0,96,0.00,,,0.00,WUHU21623XXSP,2013-04-05 07:00:00,
2013-04-05 02:05:00,41.9,40.8,30.06,North,0,0.0,0.0,96,0.00,,,0.00,WUHU21623XXSP,2013-04-05 07:05:00,
2013-04-05 02:10:00,42.1,41.0,30.06,North,0,0.0,0.0,96,0.00,,,0.00,WUHU21623XXSP,2013-04-05 07:10:00,
2013-04-05 02:15:00,42.1,41.0,30.06,North,0,0.0,0.0,96,0.00,,,0.00,WUHU21623XXSP,2013-04-05 07:15:00,
2013-04-05 02:17:00,42.1,41.0,30.06,North,0,0.0,0.0,96,0.00,,,0.00,WUHU21623XXSP,2013-04-05 07:17:00,
2013-04-05 02:20:00,42.4,41.4,30.06,NNW,337,0.0,4.0,96,0.00,,,0.00,WUHU21623XXSP,2013-04-05 07:20:00,
2013-04-05 02:25:00,42.6,41.5,30.06,NNW,337,4.0,4.0,96,0.00,,,0.00,WUHU21623XXSP,2013-04-05 07:25:00,
2013-04-05 02:30:00,43.2,42.1,30.06,NW,315,1.1,4.9,96,0.00,,,0.00,WUHU21623XXSP,2013-04-05 07:30:00,
2013-04-05 02:36:00,43.3,42.3,30.06,WNW,292,0.0,4.9,96,0.00,,,0.00,WUHU21623XXSP,2013-04-05 07:36:00,
2013-04-05 02:41:00,43.2,42.1,30.06,NNW,337,0.0,4.0,96,0.00,,,0.00,WUHU21623XXSP,2013-04-05 07:41:00,
2013-04-05 02:46:00,43.2,42.1,30.06,NNW,337,0.0,4.0,96,0.00,,,0.00,WUHU21623XXSP,2013-04-05 07:46:00,
2013-04-05 02:51:00,43.2,42.1,30.06,NNW,337,0.0,1.8,96,0.00,,,0.00,WUHU21623XXSP,2013-04-05 07:51:00,
2013-04-05 02:59:00,43.2,42.1,30.07,NW,315,0.0,1.8,96,0.00,,,0.00,WUHU21623XXSP,2013-04-05 07:59:00,
2013-04-05 03:04:00,43.2,42.1,30.07,NNW,337,0.0,0.0,96,0.00,,,0.00,WUHU21623XXSP,2013-04-05 08:04:00,
2013-04-05 03:09:00,43.3,42.3,30.07,NW,315,0.0,1.6,96,0.00,,,0.00,WUHU21623XXSP,2013-04-05 08:09:00,
2013-04-05 03:14:00,43.3,42.3,30.07,North,0,0.0,1.6,96,0.00,,,0.00,WUHU21623XXSP,2013-04-05 08:14:00,
2013-04-05 03:17:00,43.3,42.2,30.06,North,0,0.0,0.0,96,0.00,,,0.00,WUHU21623XXSP,2013-04-05 08:17:00,
2013-04-05 03:19:00,43.3,42.3,30.07,NNW,337,0.0,0.0,96,0.00,,,0.00,WUHU21623XXSP,2013-04-05 08:19:00,
2013-04-05 03:24:00,43.3,42.3,30.06,NNW,337,0.0,0.0,96,0.00,,,0.00,WUHU21623XXSP,2013-04-05 08:24:00,
2013-04-05 03:29:00,43.5,42.4,30.07,NNW,337,0.0,0.0,96,0.00,,,0.00,WUHU21623XXSP,2013-04-05 08:29:00,
2013-04-05 03:34:00,43.5,42.4,30.07,NNW,337,0.0,1.3,96,0.00,,,0.00,WUHU21623XXSP,2013-04-05 08:34:00,
2013-04-05 03:39:00,43.5,42.4,30.07,NNW,337,0.0,1.3,96,0.00,,,0.00,WUHU21623XXSP,2013-04-05 08:39:00,
2013-04-05 03:45:00,43.7,42.6,30.07,NW,315,0.0,0.4,96,0.00,,,0.00,WUHU21623XXSP,2013-04-05 08:45:00,
2013-04-05 03:50:00,43.7,42.6,30.08,North,0,0.0,0.4,96,0.00,,,0.00,WUHU21623XXSP,2013-04-05 08:50:00,
2013-04-05 03:55:00,43.5,42.4,30.08,NNE,22,0.0,0.0,96,0.00,,,0.00,WUHU21623XXSP,2013-04-05 08:55:00,
2013-04-05 04:00:00,43.5,42.4,30.08,NNE,22,0.0,0.0,96,0.00,,,0.00,WUHU21623XXSP,2013-04-05 09:00:00,
2013-04-05 04:05:00,43.5,42.4,30.08,NNE,22,0.0,0.0,96,0.00,,,0.00,WUHU21623XXSP,2013-04-05 09:05:00,
2013-04-05 04:10:00,43.5,42.4,30.08,NNE,22,0.0,0.0,96,0.00,,,0.00,WUHU21623XXSP,2013-04-05 09:10:00,
2013-04-05 04:15:00,43.5,42.4,30.09,NNE,22,0.0,0.0,96,0.00,,,0.00,WUHU21623XXSP,2013-04-05 09:15:00,
2013-04-05 04:17:00,43.5,42.4,30.09,NNE,23,0.0,0.0,96,0.00,,,0.00,WUHU21623XXSP,2013-04-05 09:17:00,
2013-04-05 04:20:00,43.5,42.4,30.08,NE,45,0.0,0.0,96,0.00,,,0.00,WUHU21623XXSP,2013-04-05 09:20:00,
2013-04-05 04:25:00,43.5,42.4,30.08,NE,45,0.0,0.0,96,0.00,,,0.00,WUHU21623XXSP,2013-04-05 09:25:00,
2013-04-05 04:30:00,43.5,42.4,30.08,NNW,337,0.0,4.0,96,0.00,,,0.00,WUHU21623XXSP,2013-04-05 09:30:00,
2013-04-05 04:35:00,43.5,42.4,30.09,NNW,337,0.0,4.0,96,0.00,,,0.00,WUHU21623XXSP,2013-04-05 09:35:00,
2013-04-05 04:40:00,43.7,42.6,30.09,NNW,337,0.0,0.0,96,0.00,,,0.00,WUHU21623XXSP,2013-04-05 09:40:00,
2013-04-05 04:45:00,43.9,42.8,30.09,NNW,337,0.0,0.0,96,0.00,,,0.00,WUHU21623XXSP,2013-04-05 09:45:00,
2013-04-05 04:50:00,43.9,42.8,30.09,NNW,337,0.0,0.0,96,0.00,,,0.00,WUHU21623XXSP,2013-04-05 09:50:00,
2013-04-05 04:55:00,43.7,42.6,30.09,NE,45,0.0,0.0,96,0.00,,,0.00,WUHU21623XXSP,2013-04-05 09:55:00,
2013-04-05 05:00:00,43.7,42.6,30.09,NNW,337,0.0,0.0,96,0.00,,,0.00,WUHU21623XXSP,2013-04-05 10:00:00,
2013-04-05 05:05:00,43.7,42.6,30.09,NNE,22,0.0,0.0,96,0.00,,,0.00,WUHU21623XXSP,2013-04-05 10:05:00,
2013-04-05 05:10:00,43.7,42.6,30.09,NNE,22,0.0,0.0,96,0.00,,,0.00,WUHU21623XXSP,2013-04-05 10:10:00,
2013-04-05 05:15:00,43.7,42.6,30.09,NNE,22,0.0,0.0,96,0.00,,,0.00,WUHU21623XXSP,2013-04-05 10:15:00,
2013-04-05 05:17:00,43.7,42.6,30.09,NNE,23,0.0,0.0,96,0.00,,,0.00,WUHU21623XXSP,2013-04-05 10:17:00,
2013-04-05 05:20:00,43.7,42.6,30.09,NNE,22,0.0,0.0,96,0.00,,,0.00,WUHU21623XXSP,2013-04-05 10:20:00,
2013-04-05 05:25:00,43.7,42.6,30.09,North,0,0.0,0.0,96,0.00,,,0.00,WUHU21623XXSP,2013-04-05 10:25:00,
2013-04-05 05:30:00,43.7,42.6,30.10,North,0,0.0,0.0,96,0.00,,,0.00,WUHU21623XXSP,2013-04-05 10:30:00,
2013-04-05 05:35:00,43.5,42.4,30.10,NNE,22,0.0,0.0,96,0.00,,,0.00,WUHU21623XXSP,2013-04-05 10:35:00,
2013-04-05 05:40:00,43.5,42.4,30.10,NNW,337,0.0,0.0,96,0.00,,,0.00,WUHU21623XXSP,2013-04-05 10:40:00,
2013-04-05 05:45:00,43.5,42.4,30.11,NNW,337,0.0,0.0,96,0.00,,,0.00,WUHU21623XXSP,2013-04-05 10:45:00,
2013-04-05 05:50:00,43.5,42.4,30.11,NNW,337,0.0,0.0,96,0.00,,,0.00,WUHU21623XXSP,2013-04-05 10:50:00,
2013-04-05 05:55:00,43.5,42.4,30.11,NE,45,0.0,0.0,96,0.00,,,0.00,WUHU21623XXSP,2013-04-05 10:55:00,
2013-04-05 06:00:00,43.5,42.4,30.11,NE,45,0.0,0.0,96,0.00,,,0.00,WUHU21623XXSP,2013-04-05 11:00:00,
2013-04-05 06:05:00,43.3,42.3,30.11,NE,45,0.0,0.0,96,0.00,,,0.00,WUHU21623XXSP,2013-04-05 11:05:00,
2013-04-05 06:10:00,43.3,42.3,30.10,NE,45,0.0,0.0,96,0.00,,,0.00,WUHU21623XXSP,2013-04-05 11:10:00,
2013-04-05 06:15:00,43.3,42.3,30.10,NE,45,0.0,0.0,96,0.00,,,0.00,WUHU21623XXSP,2013-04-05 11:15:00,
2013-04-05 06:17:00,43.3,42.2,30.10,NE,45,0.0,0.0,96,0.00,,,0.00,WUHU21623XXSP,2013-04-05 11:17:00,
2013-04-05 06:20:00,43.3,42.3,30.10,NE,45,0.0,0.0,96,0.00,,,0.00,WUHU21623XXSP,2013-04-05 11:20:00,
2013-04-05 06:25:00,43.2,42.1,30.11,WNW,292,0.0,0.0,96,0.00,,,0.00,WUHU21623XXSP,2013-04-05 11:25:00,
2013-04-05 06:30:00,43.2,42.1,30.11,WNW,292,0.0,0.0,96,0.00,,,0.00,WUHU21623XXSP,2013-04-05 11:30:00,
2013-04-05 06:35:00,43.2,42.1,30.11,WNW,292,0.0,0.0,96,0.00,,,0.00,WUHU21623XXSP,2013-04-05 11:35:00,
2013-04-05 06:40:00,43.2,42.1,30.11,NNE,22,0.0,0.0,96,0.00,,,0.00,WUHU21623XXSP,2013-04-05 11:40:00,
2013-04-05 06:45:00,43.0,41.9,30.11,North,0,0.0,0.0,96,0.00,,,0.00,WUHU21623XXSP,2013-04-05 11:45:00,
2013-04-05 06:50:00,43.0,41.9,30.11,North,0,0.0,0.0,96,0.00,,,0.00,WUHU21623XXSP,2013-04-05 11:50:00,
2013-04-05 06:55:00,43.0,41.9,30.11,North,0,0.0,0.0,96,0.00,,,0.00,WUHU21623XXSP,2013-04-05 11:55:00,
2013-04-05 07:00:00,43.0,41.9,30.11,North,0,0.0,0.0,96,0.00,,,0.00,WUHU21623XXSP,2013-04-05 12:00:00,
2013-04-05 07:05:00,43.0,41.9,30.12,North,0,0.0,0.0,96,0.00,,,0.00,WUHU21623XXSP,2013-04-05 12:05:00,
2013-04-05 07:10:00,43.0,41.9,30.12,NW,315,0.0,0.0,96,0.00,,,0.00,WUHU21623XXSP,2013-04-05 12:10:00,
2013-04-05 07:15:00,43.0,41.9,30.12,NW,315,0.0,0.0,96,0.00,,,0.00,WUHU21623XXSP,2013-04-05 12:15:00,
2013-04-05 07:17:00,43.0,41.9,30.12,NW,315,0.0,0.0,96,0.00,,,0.00,WUHU21623XXSP,2013-04-05 12:17:00,
2013-04-05 07:20:00,43.0,41.9,30.12,NNW,337,0.0,0.0,96,0.00,,,0.00,WUHU21623XXSP,2013-04-05 12:20:00,
2013-04-05 07:25:00,43.2,42.1,30.12,NNE,22,0.0,0.0,96,0.00,,,0.00,WUHU21623XXSP,2013-04-05 12:25:00,
2013-04-05 07:30:00,43.0,41.9,30.12,NE,45,0.0,0.0,96,0.00,,,0.00,WUHU21623XXSP,2013-04-05 12:30:00,
2013-04-05 07:35:00,43.0,41.9,30.12,NE,45,0.0,0.0,96,0.00,,,0.00,WUHU21623XXSP,2013-04-05 12:35:00,
2013-04-05 07:40:00,43.2,42.1,30.13,NE,45,0.0,0.0,96,0.00,,,0.00,WUHU21623XXSP,2013-04-05 12:40:00,
2013-04-05 07:45:00,43.2,42.1,30.13,NE,45,0.0,0.0,96,0.00,,,0.00,WUHU21623XXSP,2013-04-05 12:45:00,
2013-04-05 07:50:00,43.2,42.1,30.13,NE,45,0.0,0.0,96,0.00,,,0.00,WUHU21623XXSP,2013-04-05 12:50:00,
2013-04-05 07:55:00,43.2,42.1,30.13,NE,45,0.0,0.0,96,0.00,,,0.00,WUHU21623XXSP,2013-04-05 12:55:00,
2013-04-05 08:00:00,43.3,42.3,30.13,NE,45,0.0,0.0,96,0.00,,,0.00,WUHU21623XXSP,2013-04-05 13:00:00,
2013-04-05 08:05:00,43.7,42.6,30.14,NNE,22,0.0,0.0,96,0.00,,,0.00,WUHU21623XXSP,2013-04-05 13:05:00,
2013-04-05 08:10:00,43.7,42.6,30.14,NE,45,0.0,0.0,96,0.00,,,0.00,WUHU21623XXSP,2013-04-05 13:10:00,
2013-04-05 08:15:00,44.1,43.0,30.14,ESE,112,0.0,0.0,96,0.00,,,0.00,WUHU21623XXSP,2013-04-05 13:15:00,
2013-04-05 08:17:00,44.1,43.0,30.14,ESE,113,0.0,0.0,96,0.00,,,0.00,WUHU21623XXSP,2013-04-05 13:17:00,
2013-04-05 08:20:00,44.1,43.0,30.14,ESE,112,0.0,0.0,96,0.00,,,0.00,WUHU21623XXSP,2013-04-05 13:20:00,
2013-04-05 08:25:00,44.6,43.5,30.15,ESE,112,0.0,0.0,96,0.00,,,0.00,WUHU21623XXSP,2013-04-05 13:25:00,
2013-04-05 08:30:00,44.8,43.7,30.14,ESE,112,0.0,0.0,96,0.00,,,0.00,WUHU21623XXSP,2013-04-05 13:30:00,
2013-04-05 08:35:00,45.0,43.9,30.15,NNE,22,0.0,0.0,96,0.00,,,0.00,WUHU21623XXSP,2013-04-05 13:35:00,
2013-04-05 08:40:00,44.8,43.7,30.15,NNE,22,0.0,0.0,96,0.00,,,0.00,WUHU21623XXSP,2013-04-05 13:40:00,
2013-04-05 08:45:00,44.6,43.5,30.14,NNE,22,0.0,0.0,96,0.00,,,0.00,WUHU21623XXSP,2013-04-05 13:45:00,
2013-04-05 08:50:00,44.6,43.5,30.14,NNE,22,0.0,0.0,96,0.00,,,0.00,WUHU21623XXSP,2013-04-05 13:50:00,
2013-04-05 08:55:00,44.6,43.5,30.15,NNE,22,0.0,0.0,96,0.00,,,0.00,WUHU21623XXSP,2013-04-05 13:55:00,
2013-04-05 09:00:00,44.8,43.7,30.15,NNE,22,0.0,0.0,96,0.00,,,0.00,WUHU21623XXSP,2013-04-05 14:00:00,
2013-04-05 09:05:00,45.0,43.9,30.15,NNE,22,0.0,0.0,96,0.00,,,0.00,WUHU21623XXSP,2013-04-05 14:05:00,
2013-04-05 09:10:00,45.1,44.1,30.15,NNE,22,0.0,0.0,96,0.00,,,0.00,WUHU21623XXSP,2013-04-05 14:10:00,
2013-04-05 09:15:00,45.7,44.6,30.15,NNE,22,0.0,0.0,96,0.00,,,0.00,WUHU21623XXSP,2013-04-05 14:15:00,
2013-04-05 09:17:00,45.7,44.6,30.15,NNE,23,0.0,0.0,96,0.00,,,0.00,WUHU21623XXSP,2013-04-05 14:17:00,
2013-04-05 09:20:00,45.9,44.8,30.15,NE,45,0.0,0.0,96,0.00,,,0.00,WUHU21623XXSP,2013-04-05 14:20:00,
2013-04-05 09:25:00,46.0,45.0,30.15,ESE,112,0.0,0.0,96,0.00,,,0.00,WUHU21623XXSP,2013-04-05 14:25:00,
2013-04-05 09:30:00,46.6,45.5,30.15,NNE,22,0.0,0.0,96,0.00,,,0.00,WUHU21623XXSP,2013-04-05 14:30:00,
2013-04-05 09:35:00,46.8,45.7,30.15,NNE,22,0.0,0.0,96,0.00,,,0.00,WUHU21623XXSP,2013-04-05 14:35:00,
2013-04-05 09:40:00,46.9,45.9,30.15,NNE,22,0.0,0.0,96,0.00,,,0.00,WUHU21623XXSP,2013-04-05 14:40:00,
2013-04-05 09:46:00,47.7,46.6,30.15,WNW,292,0.0,0.0,96,0.00,,,0.00,WUHU21623XXSP,2013-04-05 14:46:00,
2013-04-05 09:51:00,47.8,46.8,30.16,WNW,292,0.0,0.0,96,0.00,,,0.00,WUHU21623XXSP,2013-04-05 14:51:00,
2013-04-05 09:56:00,48.4,47.3,30.16,North,0,0.0,0.0,96,0.00,,,0.00,WUHU21623XXSP,2013-04-05 14:56:00,
2013-04-05 10:01:00,49.1,48.0,30.16,SE,135,0.0,0.0,96,0.00,,,0.00,WUHU21623XXSP,2013-04-05 15:01:00,
2013-04-05 10:06:00,49.6,48.5,30.16,SE,135,0.0,0.0,96,0.00,,,0.00,WUHU21623XXSP,2013-04-05 15:06:00,
2013-04-05 10:11:00,50.2,49.0,30.16,NW,315,0.0,0.0,96,0.00,,,0.00,WUHU21623XXSP,2013-04-05 15:11:00,
2013-04-05 10:16:00,50.5,49.4,30.16,WNW,292,0.0,0.0,96,0.00,,,0.00,WUHU21623XXSP,2013-04-05 15:16:00,
2013-04-05 10:17:00,50.5,49.4,30.16,WNW,293,0.0,0.0,96,0.00,,,0.00,WUHU21623XXSP,2013-04-05 15:17:00,
2013-04-05 10:21:00,50.7,49.6,30.16,NNE,22,0.0,0.0,96,0.00,,,0.00,WUHU21623XXSP,2013-04-05 15:21:00,
2013-04-05 10:26:00,51.4,50.3,30.16,North,0,0.0,0.0,96,0.00,,,0.00,WUHU21623XXSP,2013-04-05 15:26:00,
2013-04-05 10:31:00,52.0,50.8,30.16,NNE,22,3.4,3.4,96,0.00,,,0.00,WUHU21623XXSP,2013-04-05 15:31:00,
2013-04-05 10:36:00,52.5,50.5,30.16,WNW,292,0.0,3.4,93,0.00,,,0.00,WUHU21623XXSP,2013-04-05 15:36:00,
2013-04-05 10:41:00,53.2,50.1,30.16,WNW,292,0.0,0.0,89,0.00,,,0.00,WUHU21623XXSP,2013-04-05 15:41:00,
2013-04-05 10:46:00,54.0,50.1,30.16,ESE,112,2.5,3.8,87,0.00,,,0.00,WUHU21623XXSP,2013-04-05 15:46:00,
2013-04-05 10:51:00,54.5,50.0,30.16,NNE,22,0.0,3.8,85,0.00,,,0.00,WUHU21623XXSP,2013-04-05 15:51:00,
2013-04-05 10:56:00,55.8,50.3,30.16,SW,225,5.1,5.1,82,0.00,,,0.00,WUHU21623XXSP,2013-04-05 15:56:00,
2013-04-05 11:01:00,56.3,49.1,30.16,NNE,22,0.0,5.1,77,0.00,,,0.00,WUHU21623XXSP,2013-04-05 16:01:00,
2013-04-05 11:06:00,56.8,48.9,30.16,ENE,67,0.0,2.9,75,0.00,,,0.00,WUHU21623XXSP,2013-04-05 16:06:00,
2013-04-05 11:11:00,57.9,48.2,30.15,NE,45,2.0,2.9,70,0.00,,,0.00,WUHU21623XXSP,2013-04-05 16:11:00,
2013-04-05 11:16:00,58.5,47.5,30.15,ENE,67,4.0,4.0,67,0.00,,,0.00,WUHU21623XXSP,2013-04-05 16:16:00,
2013-04-05 11:17:00,58.8,48.0,30.15,ENE,68,3.1,3.1,67,0.00,,,0.00,WUHU21623XXSP,2013-04-05 16:17:00,
2013-04-05 11:21:00,59.4,47.9,30.15,ENE,67,0.0,4.0,67,0.00,,,0.00,WUHU21623XXSP,2013-04-05 16:21:00,
2013-04-05 11:26:00,60.4,46.6,30.15,NE,45,2.7,3.1,60,0.00,,,0.00,WUHU21623XXSP,2013-04-05 16:26:00,
2013-04-05 11:31:00,61.0,46.6,30.14,ESE,112,3.4,3.4,59,0.00,,,0.00,WUHU21623XXSP,2013-04-05 16:31:00,
2013-04-05 11:37:00,61.3,44.0,30.14,NNE,22,0.0,3.4,53,0.00,,,0.00,WUHU21623XXSP,2013-04-05 16:37:00,
2013-04-05 11:42:00,61.2,42.4,30.14,North,0,0.0,0.9,50,0.00,,,0.00,WUHU21623XXSP,2013-04-05 16:42:00,
2013-04-05 11:47:00,61.3,43.1,30.14,ENE,67,0.0,4.3,51,0.00,,,0.00,WUHU21623XXSP,2013-04-05 16:47:00,
2013-04-05 11:52:00,61.7,42.9,30.14,ESE,112,1.6,4.3,50,0.00,,,0.00,WUHU21623XXSP,2013-04-05 16:52:00,
2013-04-05 11:57:00,62.4,43.0,30.15,NE,45,3.4,3.4,49,0.00,,,0.00,WUHU21623XXSP,2013-04-05 16:57:00,
2013-04-05 12:02:00,63.0,42.3,30.14,East,90,2.5,4.5,47,0.00,,,0.00,WUHU21623XXSP,2013-04-05 17:02:00,
2013-04-05 12:07:00,63.5,43.4,30.14,ESE,112,0.0,4.5,48,0.00,,,0.00,WUHU21623XXSP,2013-04-05 17:07:00,
2013-04-05 12:12:00,63.9,41.4,30.15,NE,45,0.0,2.9,44,0.00,,,0.00,WUHU21623XXSP,2013-04-05 17:12:00,
2013-04-05 12:17:00,64.6,42.0,30.14,ENE,67,0.9,5.1,44,0.00,,,0.00,WUHU21623XXSP,2013-04-05 17:17:00,
2013-04-05 12:22:00,65.3,43.3,30.14,ENE,67,2.7,5.1,45,0.00,,,0.00,WUHU21623XXSP,2013-04-05 17:22:00,
2013-04-05 12:27:00,66.6,43.9,30.15,NE,45,2.7,2.9,44,0.00,,,0.00,WUHU21623XXSP,2013-04-05 17:27:00,
2013-04-05 12:32:00,67.1,43.2,30.14,NNE,22,2.7,4.9,42,0.00,,,0.00,WUHU21623XXSP,2013-04-05 17:32:00,
2013-04-05 12:37:00,67.3,41.4,30.13,ENE,67,4.0,4.9,39,0.00,,,0.00,WUHU21623XXSP,2013-04-05 17:37:00,
2013-04-05 12:42:00,67.3,42.2,30.14,NE,45,4.0,4.9,40,0.00,,,0.00,WUHU21623XXSP,2013-04-05 17:42:00,
2013-04-05 12:47:00,67.6,42.5,30.14,ESE,112,3.1,4.9,40,0.00,,,0.00,WUHU21623XXSP,2013-04-05 17:47:00,
2013-04-05 12:52:00,68.2,43.6,30.14,NNE,22,5.1,5.6,41,0.00,,,0.00,WUHU21623XXSP,2013-04-05 17:52:00,
2013-04-05 12:57:00,67.8,39.7,30.14,NNE,22,0.0,5.6,36,0.00,,,0.00,WUHU21623XXSP,2013-04-05 17:57:00,
2013-04-05 13:02:00,67.6,40.3,30.13,ENE,67,2.9,5.1,37,0.00,,,0.00,WUHU21623XXSP,2013-04-05 18:02:00,
2013-04-05 13:08:00,68.2,42.2,30.13,NNE,22,0.0,2.9,39,0.00,,,0.00,WUHU21623XXSP,2013-04-05 18:08:00,
2013-04-05 13:13:00,68.2,40.7,30.13,ENE,67,0.9,2.7,37,0.00,,,0.00,WUHU21623XXSP,2013-04-05 18:13:00,
2013-04-05 13:18:00,68.2,39.3,30.13,NNE,22,0.0,3.4,35,0.00,,,0.00,WUHU21623XXSP,2013-04-05 18:18:00,
2013-04-05 13:23:00,67.5,38.6,30.13,North,0,3.8,3.8,35,0.00,,,0.00,WUHU21623XXSP,2013-04-05 18:23:00,
2013-04-05 13:28:00,67.1,38.3,30.12,NNE,22,0.7,3.8,35,0.00,,,0.00,WUHU21623XXSP,2013-04-05 18:28:00,
2013-04-05 13:33:00,66.9,36.0,30.13,NW,315,0.0,1.3,32,0.00,,,0.00,WUHU21623XXSP,2013-04-05 18:33:00,
2013-04-05 13:38:00,66.9,36.7,30.12,North,0,0.0,3.6,33,0.00,,,0.00,WUHU21623XXSP,2013-04-05 18:38:00,
2013-04-05 13:43:00,66.9,37.5,30.12,WNW,292,0.0,3.6,34,0.00,,,0.00,WUHU21623XXSP,2013-04-05 18:43:00,
2013-04-05 13:48:00,67.1,36.9,30.12,NNE,22,1.3,1.3,33,0.00,,,0.00,WUHU21623XXSP,2013-04-05 18:48:00,
2013-04-05 13:53:00,67.5,37.2,30.12,ENE,67,4.3,4.3,33,0.00,,,0.00,WUHU21623XXSP,2013-04-05 18:53:00,
2013-04-05 13:58:00,68.2,38.5,30.11,West,270,2.2,4.3,34,0.00,,,0.00,WUHU21623XXSP,2013-04-05 18:58:00,
2013-04-05 14:03:00,68.4,37.2,30.12,NE,45,0.0,3.6,32,0.00,,,0.00,WUHU21623XXSP,2013-04-05 19:03:00,
2013-04-05 14:08:00,68.0,35.4,30.11,NNW,337,2.2,5.6,30,0.00,,,0.00,WUHU21623XXSP,2013-04-05 19:08:00,
2013-04-05 14:13:00,67.8,35.3,30.11,NW,315,6.9,6.9,30,0.00,,,0.00,WUHU21623XXSP,2013-04-05 19:13:00,
2013-04-05 14:17:00,67.6,34.0,30.11,NNE,23,3.4,3.4,29,0.00,,,0.00,WUHU21623XXSP,2013-04-05 19:17:00,
2013-04-05 14:18:00,67.6,34.1,30.12,NNE,22,3.4,6.9,29,0.00,,,0.00,WUHU21623XXSP,2013-04-05 19:18:00,
2013-04-05 14:23:00,67.3,34.8,30.12,NW,315,0.0,5.8,30,0.00,,,0.00,WUHU21623XXSP,2013-04-05 19:23:00,
2013-04-05 14:28:00,67.5,35.7,30.11,WNW,292,0.9,5.8,31,0.00,,,0.00,WUHU21623XXSP,2013-04-05 19:28:00,
2013-04-05 14:34:00,67.5,34.0,30.11,West,270,7.2,7.6,29,0.00,,,0.00,WUHU21623XXSP,2013-04-05 19:34:00,
2013-04-05 14:39:00,67.5,35.0,30.11,NW,315,3.4,7.6,30,0.00,,,0.00,WUHU21623XXSP,2013-04-05 19:39:00,
2013-04-05 14:44:00,67.8,36.0,30.11,WNW,292,3.1,5.8,31,0.00,,,0.00,WUHU21623XXSP,2013-04-05 19:44:00,
2013-04-05 14:49:00,68.4,36.5,30.10,ENE,67,0.0,5.8,31,0.00,,,0.00,WUHU21623XXSP,2013-04-05 19:49:00,
2013-04-05 14:54:00,68.9,37.4,30.10,North,0,0.7,0.7,31,0.00,,,0.00,WUHU21623XXSP,2013-04-05 19:54:00,
2013-04-05 14:59:00,68.9,35.2,30.10,NNW,337,3.8,6.3,29,0.00,,,0.00,WUHU21623XXSP,2013-04-05 19:59:00,
2013-04-05 15:04:00,68.9,36.2,30.09,NE,45,0.0,6.3,30,0.00,,,0.00,WUHU21623XXSP,2013-04-05 20:04:00,
2013-04-05 15:09:00,69.3,35.5,30.09,West,270,0.0,5.6,29,0.00,,,0.00,WUHU21623XXSP,2013-04-05 20:09:00,
2013-04-05 15:14:00,69.4,36.7,30.09,NE,45,4.7,5.4,30,0.00,,,0.00,WUHU21623XXSP,2013-04-05 20:14:00,
2013-04-05 15:17:00,69.6,37.4,30.09,NW,315,0.0,0.0,31,0.00,,,0.00,WUHU21623XXSP,2013-04-05 20:17:00,
2013-04-05 15:19:00,70.0,37.9,30.09,NW,315,0.0,5.4,31,0.00,,,0.00,WUHU21623XXSP,2013-04-05 20:19:00,
2013-04-05 15:24:00,70.2,38.1,30.08,ENE,67,1.6,1.8,31,0.00,,,0.00,WUHU21623XXSP,2013-04-05 20:24:00,
2013-04-05 15:29:00,70.2,35.3,30.07,NNW,337,2.7,2.7,28,0.00,,,0.00,WUHU21623XXSP,2013-04-05 20:29:00,
2013-04-05 15:34:00,70.0,34.2,30.08,NW,315,3.4,3.4,27,0.00,,,0.00,WUHU21623XXSP,2013-04-05 20:34:00,
2013-04-05 15:39:00,70.0,35.2,30.08,NNW,337,4.7,4.7,28,0.00,,,0.00,WUHU21623XXSP,2013-04-05 20:39:00,
2013-04-05 15:44:00,69.8,35.0,30.08,NW,315,1.1,4.7,28,0.00,,,0.00,WUHU21623XXSP,2013-04-05 20:44:00,
2013-04-05 15:49:00,69.4,33.7,30.08,NNW,337,2.7,2.7,27,0.00,,,0.00,WUHU21623XXSP,2013-04-05 20:49:00,
2013-04-05 15:54:00,69.4,34.7,30.08,NW,315,0.0,2.7,28,0.00,,,0.00,WUHU21623XXSP,2013-04-05 20:54:00,
2013-04-05 15:59:00,70.0,37.2,30.08,East,90,0.0,2.9,30,0.00,,,0.00,WUHU21623XXSP,2013-04-05 20:59:00,
2013-04-05 16:04:00,71.1,39.6,30.07,SSE,157,2.0,2.0,32,0.00,,,0.00,WUHU21623XXSP,2013-04-05 21:04:00,
2013-04-05 16:09:00,72.0,38.9,30.07,SSW,202,0.0,2.0,30,0.00,,,0.00,WUHU21623XXSP,2013-04-05 21:09:00,
2013-04-05 16:14:00,72.7,38.5,30.07,NE,45,0.0,2.9,29,0.00,,,0.00,WUHU21623XXSP,2013-04-05 21:14:00,
2013-04-05 16:19:00,73.0,37.8,30.08,ENE,67,0.0,2.9,28,0.00,,,0.00,WUHU21623XXSP,2013-04-05 21:19:00,
2013-04-05 16:24:00,73.0,36.8,30.07,NNW,337,1.1,2.0,27,0.00,,,0.00,WUHU21623XXSP,2013-04-05 21:24:00,
2013-04-05 16:29:00,72.5,34.3,30.07,NNE,22,0.0,2.0,25,0.00,,,0.00,WUHU21623XXSP,2013-04-05 21:29:00,
2013-04-05 16:34:00,72.1,35.0,30.07,NNE,22,0.0,1.1,26,0.00,,,0.00,WUHU21623XXSP,2013-04-05 21:34:00,
2013-04-05 16:39:00,71.8,34.7,30.07,ESE,112,3.6,4.5,26,0.00,,,0.00,WUHU21623XXSP,2013-04-05 21:39:00,
2013-04-05 16:44:00,72.1,37.0,30.06,ESE,112,0.0,4.5,28,0.00,,,0.00,WUHU21623XXSP,2013-04-05 21:44:00,
2013-04-05 16:49:00,72.1,36.0,30.06,NNW,337,2.7,3.4,27,0.00,,,0.00,WUHU21623XXSP,2013-04-05 21:49:00,
2013-04-05 16:54:00,72.0,34.8,30.06,West,270,0.0,3.4,26,0.00,,,0.00,WUHU21623XXSP,2013-04-05 21:54:00,
2013-04-05 16:59:00,71.6,33.5,30.06,NNW,337,3.8,3.8,25,0.00,,,0.00,WUHU21623XXSP,2013-04-05 21:59:00,
2013-04-05 17:04:00,71.2,34.2,30.07,SSE,157,2.0,3.8,26,0.00,,,0.00,WUHU21623XXSP,2013-04-05 22:04:00,
2013-04-05 17:09:00,72.0,36.9,30.07,SE,135,0.7,2.0,28,0.00,,,0.00,WUHU21623XXSP,2013-04-05 22:09:00,
2013-04-05 17:14:00,72.1,36.0,30.07,WNW,292,0.0,1.3,27,0.00,,,0.00,WUHU21623XXSP,2013-04-05 22:14:00,
2013-04-05 17:17:00,72.1,36.1,30.06,WNW,293,0.0,0.0,27,0.00,,,0.00,WUHU21623XXSP,2013-04-05 22:17:00,
2013-04-05 17:19:00,72.1,36.0,30.06,NW,315,0.0,1.3,27,0.00,,,0.00,WUHU21623XXSP,2013-04-05 22:19:00,
2013-04-05 17:24:00,71.8,35.7,30.06,NNE,22,1.6,4.5,27,0.00,,,0.00,WUHU21623XXSP,2013-04-05 22:24:00,
2013-04-05 17:29:00,72.1,37.0,30.06,ESE,112,1.3,4.5,28,0.00,,,0.00,WUHU21623XXSP,2013-04-05 22:29:00,
2013-04-05 17:34:00,73.4,38.1,30.06,East,90,0.0,1.3,28,0.00,,,0.00,WUHU21623XXSP,2013-04-05 22:34:00,
2013-04-05 17:39:00,73.8,37.4,30.06,East,90,0.0,1.1,27,0.00,,,0.00,WUHU21623XXSP,2013-04-05 22:39:00,
2013-04-05 17:44:00,73.8,37.4,30.06,ESE,112,0.0,0.0,27,0.00,,,0.00,WUHU21623XXSP,2013-04-05 22:44:00,
2013-04-05 17:49:00,72.7,33.4,30.07,NNW,337,4.0,4.0,24,0.00,,,0.00,WUHU21623XXSP,2013-04-05 22:49:00,
2013-04-05 17:54:00,71.8,33.7,30.07,NW,315,2.7,4.0,25,0.00,,,0.00,WUHU21623XXSP,2013-04-05 22:54:00,
2013-04-05 17:59:00,71.1,32.0,30.07,WNW,292,2.5,4.3,24,0.00,,,0.00,WUHU21623XXSP,2013-04-05 22:59:00,
2013-04-05 18:04:00,70.2,33.3,30.07,WSW,247,4.0,4.9,26,0.00,,,0.00,WUHU21623XXSP,2013-04-05 23:04:00,
2013-04-05 18:09:00,69.4,33.7,30.07,NNW,337,2.5,5.1,27,0.00,,,0.00,WUHU21623XXSP,2013-04-05 23:09:00,
2013-04-05 18:14:00,69.3,35.5,30.07,NNW,337,4.0,4.0,29,0.00,,,0.00,WUHU21623XXSP,2013-04-05 23:14:00,
2013-04-05 18:17:00,68.9,35.1,30.07,West,270,2.9,2.9,29,0.00,,,0.00,WUHU21623XXSP,2013-04-05 23:17:00,
2013-04-05 18:19:00,68.5,35.9,30.07,WSW,247,3.8,5.6,30,0.00,,,0.00,WUHU21623XXSP,2013-04-05 23:19:00,
2013-04-05 18:24:00,68.0,35.4,30.06,North,0,3.6,6.9,30,0.00,,,0.00,WUHU21623XXSP,2013-04-05 23:24:00,
2013-04-05 18:30:00,67.5,35.7,30.07,WNW,292,4.3,6.9,31,0.00,,,0.00,WUHU21623XXSP,2013-04-05 23:30:00,
2013-04-05 18:35:00,66.6,35.7,30.07,NNW,337,3.4,6.0,32,0.00,,,0.00,WUHU21623XXSP,2013-04-05 23:35:00,
2013-04-05 18:40:00,66.0,36.0,30.07,NNW,337,2.9,5.4,33,0.00,,,0.00,WUHU21623XXSP,2013-04-05 23:40:00,
2013-04-05 18:45:00,65.3,35.3,30.07,WNW,292,4.5,5.8,33,0.00,,,0.00,WUHU21623XXSP,2013-04-05 23:45:00,
2013-04-05 18:50:00,64.8,34.8,30.07,NNW,337,3.6,5.8,33,0.00,,,0.00,WUHU21623XXSP,2013-04-05 23:50:00,
2013-04-05 18:55:00,64.4,35.2,30.07,NW,315,1.6,5.4,34,0.00,,,0.00,WUHU21623XXSP,2013-04-05 23:55:00,
2013-04-05 19:00:00,63.9,35.5,30.07,NNW,337,4.0,4.0,35,0.00,,,0.00,WUHU21623XXSP,2013-04-06 00:00:00,
2013-04-05 19:05:00,63.5,35.9,30.07,WNW,292,0.0,4.0,36,0.00,,,0.00,WUHU21623XXSP,2013-04-06 00:05:00,
2013-04-05 19:10:00,63.3,35.7,30.07,WNW,292,0.0,0.0,36,0.00,,,0.00,WUHU21623XXSP,2013-04-06 00:10:00,
2013-04-05 19:15:00,62.8,35.2,30.07,WSW,247,0.0,0.9,36,0.00,,,0.00,WUHU21623XXSP,2013-04-06 00:15:00,
2013-04-05 19:17:00,62.6,35.8,30.07,WSW,248,0.0,0.0,37,0.00,,,0.00,WUHU21623XXSP,2013-04-06 00:17:00,
2013-04-05 19:20:00,62.2,35.5,30.07,WSW,247,0.0,0.9,37,0.00,,,0.00,WUHU21623XXSP,2013-04-06 00:20:00,
2013-04-05 19:25:00,61.9,35.5,30.08,WSW,247,0.0,0.0,37,0.00,,,0.00,WUHU21623XXSP,2013-04-06 00:25:00,
2013-04-05 19:30:00,61.3,35.4,30.07,WSW,247,0.0,0.0,38,0.00,,,0.00,WUHU21623XXSP,2013-04-06 00:30:00,
2013-04-05 19:35:00,61.0,35.8,30.07,WSW,247,0.0,0.0,39,0.00,,,0.00,WUHU21623XXSP,2013-04-06 00:35:00,
2013-04-05 19:40:00,60.4,35.3,30.08,WSW,247,0.0,0.0,39,0.00,,,0.00,WUHU21623XXSP,2013-04-06 00:40:00,
2013-04-05 19:45:00,59.9,35.5,30.08,WSW,247,0.0,0.0,40,0.00,,,0.00,WUHU21623XXSP,2013-04-06 00:45:00,
2013-04-05 19:50:00,59.7,35.3,30.08,WNW,292,0.9,0.9,40,0.00,,,0.00,WUHU21623XXSP,2013-04-06 00:50:00,
2013-04-05 19:55:00,59.5,35.8,30.08,WNW,292,1.1,1.6,41,0.00,,,0.00,WUHU21623XXSP,2013-04-06 00:55:00,
2013-04-05 20:00:00,59.2,36.0,30.08,WNW,292,0.0,1.6,42,0.00,,,0.00,WUHU21623XXSP,2013-04-06 01:00:00,
2013-04-05 20:05:00,58.8,35.7,30.08,WNW,292,0.0,0.0,42,0.00,,,0.00,WUHU21623XXSP,2013-04-06 01:05:00,
2013-04-05 20:10:00,58.6,35.5,30.08,WNW,292,0.0,0.0,42,0.00,,,0.00,WUHU21623XXSP,2013-04-06 01:10:00,
2013-04-05 20:15:00,58.5,35.4,30.08,WNW,292,0.0,0.0,42,0.00,,,0.00,WUHU21623XXSP,2013-04-06 01:15:00,
2013-04-05 20:17:00,58.3,35.2,30.08,WNW,293,0.0,0.0,42,0.00,,,0.00,WUHU21623XXSP,2013-04-06 01:17:00,
2013-04-05 20:20:00,58.1,35.6,30.08,WNW,292,0.0,0.0,43,0.00,,,0.00,WUHU21623XXSP,2013-04-06 01:20:00,
2013-04-05 20:25:00,57.9,36.0,30.08,WNW,292,0.0,0.0,44,0.00,,,0.00,WUHU21623XXSP,2013-04-06 01:25:00,
2013-04-05 20:30:00,57.6,35.7,30.08,WNW,292,0.0,0.0,44,0.00,,,0.00,WUHU21623XXSP,2013-04-06 01:30:00,
2013-04-05 20:35:00,57.0,35.8,30.08,WNW,292,0.0,0.0,45,0.00,,,0.00,WUHU21623XXSP,2013-04-06 01:35:00,
2013-04-05 20:40:00,56.5,35.3,30.08,WNW,292,0.0,0.0,45,0.00,,,0.00,WUHU21623XXSP,2013-04-06 01:40:00,
2013-04-05 20:46:00,55.9,35.3,30.08,WNW,292,0.0,0.0,46,0.00,,,0.00,WUHU21623XXSP,2013-04-06 01:46:00,
2013-04-05 20:52:00,55.6,35.0,30.09,WNW,292,0.0,0.0,46,0.00,,,0.00,WUHU21623XXSP,2013-04-06 01:52:00,
2013-04-05 20:57:00,55.0,35.0,30.09,WNW,292,0.0,0.0,47,0.00,,,0.00,WUHU21623XXSP,2013-04-06 01:57:00,
2013-04-05 21:02:00,54.9,35.4,30.10,WNW,292,0.0,0.0,48,0.00,,,0.00,WUHU21623XXSP,2013-04-06 02:02:00,
2013-04-05 21:07:00,54.5,35.1,30.10,WNW,292,0.0,0.0,48,0.00,,,0.00,WUHU21623XXSP,2013-04-06 02:07:00,
2013-04-05 21:12:00,54.3,35.5,30.10,WNW,292,0.0,0.0,49,0.00,,,0.00,WUHU21623XXSP,2013-04-06 02:12:00,
2013-04-05 21:17:00,54.0,35.7,30.10,WNW,292,0.0,0.0,50,0.00,,,0.00,WUHU21623XXSP,2013-04-06 02:17:00,
2013-04-05 21:22:00,53.8,35.6,30.10,WNW,292,0.0,0.0,50,0.00,,,0.00,WUHU21623XXSP,2013-04-06 02:22:00,
2013-04-05 21:27:00,53.2,35.5,30.11,WNW,292,0.0,0.0,51,0.00,,,0.00,WUHU21623XXSP,2013-04-06 02:27:00,
2013-04-05 21:32:00,53.1,35.9,30.11,WNW,292,0.0,0.0,52,0.00,,,0.00,WUHU21623XXSP,2013-04-06 02:32:00,
2013-04-05 21:37:00,52.7,36.0,30.11,WNW,292,0.0,0.0,53,0.00,,,0.00,WUHU21623XXSP,2013-04-06 02:37:00,
2013-04-05 21:42:00,52.5,36.7,30.11,WNW,292,0.0,0.0,55,0.00,,,0.00,WUHU21623XXSP,2013-04-06 02:42:00,
2013-04-05 21:47:00,52.3,36.6,30.11,WNW,292,0.0,0.0,55,0.00,,,0.00,WUHU21623XXSP,2013-04-06 02:47:00,
2013-04-05 21:52:00,52.2,36.4,30.10,WNW,292,0.0,0.0,55,0.00,,,0.00,WUHU21623XXSP,2013-04-06 02:52:00,
2013-04-05 21:57:00,51.6,35.9,30.10,WNW,292,0.0,0.0,55,0.00,,,0.00,WUHU21623XXSP,2013-04-06 02:57:00,
2013-04-05 22:02:00,51.3,35.6,30.10,WNW,292,0.0,0.0,55,0.00,,,0.00,WUHU21623XXSP,2013-04-06 03:02:00,
2013-04-05 22:07:00,50.9,35.2,30.10,WNW,292,0.0,0.0,55,0.00,,,0.00,WUHU21623XXSP,2013-04-06 03:07:00,
2013-04-05 22:12:00,50.5,35.8,30.10,WNW,292,0.0,0.0,57,0.00,,,0.00,WUHU21623XXSP,2013-04-06 03:12:00,
2013-04-05 22:17:00,50.4,35.7,30.10,WNW,292,0.0,0.0,57,0.00,,,0.00,WUHU21623XXSP,2013-04-06 03:17:00,
2013-04-05 22:22:00,50.2,35.9,30.10,WNW,292,0.0,0.0,58,0.00,,,0.00,WUHU21623XXSP,2013-04-06 03:22:00,
2013-04-05 22:27:00,50.0,35.8,30.10,WNW,292,0.0,0.0,58,0.00,,,0.00,WUHU21623XXSP,2013-04-06 03:27:00,
2013-04-05 22:33:00,49.6,35.4,30.10,WNW,292,0.0,0.0,58,0.00,,,0.00,WUHU21623XXSP,2013-04-06 03:33:00,
2013-04-05 22:37:00,49.5,35.3,30.10,WNW,292,0.0,0.0,58,0.00,,,0.00,WUHU21623XXSP,2013-04-06 03:37:00,
2013-04-05 22:42:00,49.1,35.0,30.10,WNW,292,0.0,0.0,58,0.00,,,0.00,WUHU21623XXSP,2013-04-06 03:42:00,
2013-04-05 22:48:00,48.9,35.2,30.10,WNW,292,0.0,0.0,59,0.00,,,0.00,WUHU21623XXSP,2013-04-06 03:48:00,
2013-04-05 22:53:00,48.6,35.4,30.10,WNW,292,0.0,0.0,60,0.00,,,0.00,WUHU21623XXSP,2013-04-06 03:53:00,
2013-04-05 22:58:00,48.4,35.6,30.10,WNW,292,0.0,0.0,61,0.00,,,0.00,WUHU21623XXSP,2013-04-06 03:58:00,
2013-04-05 23:00:00,48.4,35.6,30.10,WNW,292,0.0,0.0,61,0.00,,,0.00,WUHU21623XXSP,2013-04-06 04:00:00,
2013-04-05 23:05:00,48.2,35.4,30.10,WNW,292,0.0,0.0,61,0.00,,,0.00,WUHU21623XXSP,2013-04-06 04:05:00,
2013-04-05 23:10:00,47.8,35.1,30.10,WNW,292,0.0,0.0,61,0.00,,,0.00,WUHU21623XXSP,2013-04-06 04:10:00,
2013-04-05 23:15:00,47.8,35.1,30.09,WNW,292,0.0,0.0,61,0.00,,,0.00,WUHU21623XXSP,2013-04-06 04:15:00,
2013-04-05 23:17:00,47.8,35.1,30.09,WNW,293,0.0,0.0,61,0.00,,,0.00,WUHU21623XXSP,2013-04-06 04:17:00,
2013-04-05 23:20:00,47.8,35.5,30.10,WNW,292,0.0,0.0,62,0.00,,,0.00,WUHU21623XXSP,2013-04-06 04:20:00,
2013-04-05 23:25:00,47.8,35.8,30.10,WNW,292,0.0,0.0,63,0.00,,,0.00,WUHU21623XXSP,2013-04-06 04:25:00,
2013-04-05 23:30:00,47.8,35.8,30.10,WNW,292,0.0,0.0,63,0.00,,,0.00,WUHU21623XXSP,2013-04-06 04:30:00,
2013-04-05 23:35:00,47.7,35.7,30.09,WNW,292,0.0,0.0,63,0.00,,,0.00,WUHU21623XXSP,2013-04-06 04:35:00,
2013-04-05 23:40:00,47.5,35.5,30.09,WNW,292,0.0,0.0,63,0.00,,,0.00,WUHU21623XXSP,2013-04-06 04:40:00,
2013-04-05 23:45:00,47.3,35.5,30.09,WNW,292,0.0,0.0,63,0.00,,,0.00,WUHU21623XXSP,2013-04-06 04:45:00,
2013-04-05 23:50:00,47.1,35.5,30.09,WNW,292,0.0,0.0,64,0.00,,,0.00,WUHU21623XXSP,2013-04-06 04:50:00,
2013-04-05 23:55:00,46.9,35.3,30.09,WNW,292,0.0,0.0,64,0.00,,,0.00,WUHU21623XXSP,2013-04-06 04:55:00,